Simultaneous Nadir Overpasses (SNOs) Predictions

Prediction of SNOs between GOES-15 and LANDSAT-8 Satellite Orbit:

Table of predicted SNOs for the next 14.0 days since TLE Epoch: 12/3/2022
Index Date Time (GOES-15) GOES-15 Lat,Lon LANDSAT-8 Lat,Lon Distance(km) Time Diff (sec)
1 12/03/2022 06:49:07 0.14,-127.90 -0.01,-128.74 94.18 80
2 12/05/2022 06:34:15 0.14,-127.84 0.59,-125.77 235.43 80
3 12/05/2022 18:55:30 -0.13,-127.80 0.54,-130.93 355.67 80
4 12/07/2022 18:43:18 -0.13,-127.73 -0.07,-127.96 26.56 80
5 12/09/2022 18:33:46 -0.13,-127.66 -0.69,-125.00 302.14 80
6 12/10/2022 06:55:10 0.12,-127.68 -0.42,-130.19 286.29 80
7 12/12/2022 06:40:18 0.11,-127.60 0.21,-127.24 41.89 80
8 12/14/2022 06:28:05 0.11,-127.52 0.78,-124.27 369.87 80
9 12/14/2022 18:49:20 -0.10,-127.46 0.33,-129.42 222.59 80
10 12/16/2022 18:39:48 -0.10,-127.38 -0.31,-126.46 105.25 80
